Time,TemperatureF,DewpointF,PressureIn,WindDirection,WindDirectionDegrees,WindSpeedMPH,WindSpeedGustMPH,Humidity,HourlyPrecipIn,Conditions,Clouds,dailyrainin,SoftwareType,DateUTC
2013-05-06 00:00:00,57.3,34.4,29.99,NE,45,0.0,0.0,42,0.00,,SKC,0.00,VWS V14.01,2013-05-06 04:00:00,
2013-05-06 00:15:00,56.8,34.0,29.99,NE,45,0.0,0.0,42,0.00,,SKC,0.00,VWS V14.01,2013-05-06 04:15:00,
2013-05-06 00:30:00,56.4,33.6,29.99,East,90,0.0,0.0,42,0.00,,SKC,0.00,VWS V14.01,2013-05-06 04:30:00,
2013-05-06 00:45:00,56.6,33.8,29.99,ENE,68,0.0,2.9,42,0.00,,SKC,0.00,VWS V14.01,2013-05-06 04:45:00,
2013-05-06 01:00:00,56.6,33.2,29.99,ENE,68,0.8,2.6,41,0.00,,SKC,0.00,VWS V14.01,2013-05-06 05:00:00,
2013-05-06 01:15:00,57.0,32.9,30.00,East,90,1.1,3.1,40,0.00,,SKC,0.00,VWS V14.01,2013-05-06 05:15:00,
2013-05-06 01:30:00,56.6,33.2,29.99,ENE,68,0.4,2.2,41,0.00,,SKC,0.00,VWS V14.01,2013-05-06 05:30:00,
2013-05-06 01:45:00,56.3,32.9,29.99,ENE,68,0.0,4.6,41,0.00,,SKC,0.00,VWS V14.01,2013-05-06 05:45:00,
2013-05-06 02:00:00,55.7,33.0,29.98,ENE,68,0.0,0.0,42,0.00,,SKC,0.00,VWS V14.01,2013-05-06 06:00:00,
2013-05-06 02:15:00,54.8,32.8,29.98,ENE,68,0.0,0.0,43,0.00,,SKC,0.00,VWS V14.01,2013-05-06 06:15:00,
2013-05-06 02:30:00,54.3,32.9,29.98,ENE,68,0.0,0.0,44,0.00,,SKC,0.00,VWS V14.01,2013-05-06 06:30:00,
2013-05-06 02:45:00,53.2,33.0,29.98,NE,45,0.0,0.0,46,0.00,,SKC,0.00,VWS V14.01,2013-05-06 06:45:00,
2013-05-06 03:00:00,52.7,33.0,29.99,ENE,68,0.0,0.0,47,0.00,,SKC,0.00,VWS V14.01,2013-05-06 07:00:00,
2013-05-06 03:15:00,53.0,34.4,29.98,ENE,68,0.0,0.0,49,0.00,,SKC,0.00,VWS V14.01,2013-05-06 07:15:00,
2013-05-06 03:30:00,53.0,33.8,29.98,ENE,68,0.0,0.0,48,0.00,,SKC,0.00,VWS V14.01,2013-05-06 07:30:00,
2013-05-06 03:45:00,53.0,34.4,29.98,North,0,0.0,0.0,49,0.00,,SKC,0.00,VWS V14.01,2013-05-06 07:45:00,
2013-05-06 04:00:00,52.7,34.1,29.98,North,0,0.0,0.0,49,0.00,,SKC,0.00,VWS V14.01,2013-05-06 08:00:00,
2013-05-06 04:15:00,52.5,34.9,29.98,North,0,0.0,0.0,51,0.00,,SKC,0.00,VWS V14.01,2013-05-06 08:15:00,
2013-05-06 04:30:00,51.9,34.4,29.98,North,0,0.0,0.0,51,0.00,,SKC,0.00,VWS V14.01,2013-05-06 08:30:00,
2013-05-06 04:45:00,51.2,34.2,29.98,North,0,0.0,0.0,52,0.00,,SKC,0.00,VWS V14.01,2013-05-06 08:45:00,
2013-05-06 05:00:00,50.9,34.9,29.98,ENE,68,0.0,0.0,54,0.00,,SKC,0.00,VWS V14.01,2013-05-06 09:00:00,
2013-05-06 05:15:00,50.3,34.8,29.98,NE,45,0.0,0.0,55,0.00,,SKC,0.00,VWS V14.01,2013-05-06 09:15:00,
2013-05-06 05:30:00,49.6,35.0,29.99,NE,45,0.0,0.0,57,0.00,,SKC,0.00,VWS V14.01,2013-05-06 09:30:00,
2013-05-06 05:45:00,48.7,34.6,29.99,NE,45,0.0,0.0,58,0.00,,SKC,0.00,VWS V14.01,2013-05-06 09:45:00,
2013-05-06 06:00:00,48.2,34.6,29.99,NE,45,0.0,0.0,59,0.00,,SKC,0.00,VWS V14.01,2013-05-06 10:00:00,
2013-05-06 06:15:00,47.8,34.6,29.99,NE,45,0.0,0.0,60,0.00,,SKC,0.00,VWS V14.01,2013-05-06 10:15:00,
2013-05-06 06:30:00,47.6,34.8,29.99,NNE,22,0.0,0.0,61,0.00,,SKC,0.00,VWS V14.01,2013-05-06 10:30:00,
2013-05-06 06:45:00,48.5,36.1,29.99,East,90,0.0,0.0,62,0.00,,SKC,0.00,VWS V14.01,2013-05-06 10:45:00,
2013-05-06 07:00:00,50.1,36.8,30.00,SW,225,0.0,0.0,60,0.00,,SKC,0.00,VWS V14.01,2013-05-06 11:00:00,
2013-05-06 07:15:00,51.2,37.4,30.00,West,270,0.0,0.0,59,0.00,,SKC,0.00,VWS V14.01,2013-05-06 11:15:00,
2013-05-06 07:30:00,52.5,38.2,30.01,NE,45,0.0,0.8,58,0.00,,SKC,0.00,VWS V14.01,2013-05-06 11:30:00,
2013-05-06 07:45:00,53.4,37.7,30.01,ENE,68,0.0,0.0,55,0.00,,SKC,0.00,VWS V14.01,2013-05-06 11:45:00,
2013-05-06 08:00:00,56.1,39.2,30.01,SSE,158,2.0,2.0,53,0.00,,SKC,0.00,VWS V14.01,2013-05-06 12:00:00,
2013-05-06 08:15:00,59.0,38.8,30.01,SSW,202,0.0,5.5,47,0.00,,SKC,0.00,VWS V14.01,2013-05-06 12:15:00,
2013-05-06 08:30:00,59.7,37.8,30.01,East,90,1.1,3.3,44,0.00,,SKC,0.00,VWS V14.01,2013-05-06 12:30:00,
2013-05-06 08:45:00,59.9,36.8,30.02,South,180,0.0,1.1,42,0.00,,SKC,0.00,VWS V14.01,2013-05-06 12:45:00,
2013-05-06 09:00:00,59.9,36.2,30.02,ENE,68,0.0,0.0,41,0.00,,SKC,0.00,VWS V14.01,2013-05-06 13:00:00,
2013-05-06 09:15:00,60.2,35.8,30.03,East,90,1.1,1.1,40,0.00,,SKC,0.00,VWS V14.01,2013-05-06 13:15:00,
2013-05-06 09:30:00,60.9,36.4,30.03,SE,135,0.0,2.2,40,0.00,,SKC,0.00,VWS V14.01,2013-05-06 13:30:00,
2013-05-06 09:45:00,62.0,37.4,30.03,ESE,112,0.0,3.1,40,0.00,,SKC,0.00,VWS V14.01,2013-05-06 13:45:00,
2013-05-06 10:00:00,63.5,38.8,30.03,ESE,112,0.6,1.7,40,0.00,,SKC,0.00,VWS V14.01,2013-05-06 14:00:00,
2013-05-06 10:15:00,64.5,37.0,30.02,NE,45,2.4,2.4,36,0.00,,SKC,0.00,VWS V14.01,2013-05-06 14:15:00,
2013-05-06 10:30:00,65.1,38.2,30.02,South,180,0.0,3.1,37,0.00,,SKC,0.00,VWS V14.01,2013-05-06 14:30:00,
2013-05-06 10:45:00,65.8,38.1,30.02,ENE,68,0.6,3.1,36,0.00,,SKC,0.00,VWS V14.01,2013-05-06 14:45:00,
2013-05-06 11:00:00,67.1,38.6,30.02,South,180,2.9,2.9,35,0.00,,SKC,0.00,VWS V14.01,2013-05-06 15:00:00,
2013-05-06 11:15:00,67.6,37.5,30.02,SE,135,2.2,6.7,33,0.00,,SKC,0.00,VWS V14.01,2013-05-06 15:15:00,
2013-05-06 11:30:00,68.9,40.2,30.02,SSE,158,1.5,5.3,35,0.00,,SKC,0.00,VWS V14.01,2013-05-06 15:30:00,
2013-05-06 11:45:00,69.4,37.5,30.02,ESE,112,4.2,4.2,31,0.00,,SKC,0.00,VWS V14.01,2013-05-06 15:45:00,
2013-05-06 12:00:00,69.4,38.3,30.02,SE,135,0.8,5.5,32,0.00,,SKC,0.00,VWS V14.01,2013-05-06 16:00:00,
2013-05-06 12:15:00,69.9,38.7,30.02,SSE,158,0.0,2.4,32,0.00,,SKC,0.00,VWS V14.01,2013-05-06 16:15:00,
2013-05-06 12:30:00,69.9,38.7,30.02,SSW,202,0.0,6.0,32,0.00,,SKC,0.00,VWS V14.01,2013-05-06 16:30:00,
2013-05-06 12:45:00,70.7,39.4,30.01,SSE,158,0.0,0.4,32,0.00,,SKC,0.00,VWS V14.01,2013-05-06 16:45:00,
2013-05-06 13:00:00,71.4,38.4,30.01,SE,135,2.4,3.5,30,0.00,,SKC,0.00,VWS V14.01,2013-05-06 17:00:00,
2013-05-06 13:15:00,72.3,39.2,30.00,SSE,158,0.8,5.1,30,0.00,,SKC,0.00,VWS V14.01,2013-05-06 17:15:00,
2013-05-06 13:30:00,73.2,40.8,30.00,SE,135,0.0,4.6,31,0.00,,SKC,0.00,VWS V14.01,2013-05-06 17:30:00,
2013-05-06 13:45:00,72.6,38.5,30.00,NNE,22,3.5,6.0,29,0.00,,SKC,0.00,VWS V14.01,2013-05-06 17:45:00,
2013-05-06 14:00:00,73.2,41.6,29.99,ENE,68,1.3,4.4,32,0.00,,SKC,0.00,VWS V14.01,2013-05-06 18:00:00,
2013-05-06 14:15:00,74.1,42.4,29.99,SSE,158,3.8,3.8,32,0.00,,SKC,0.00,VWS V14.01,2013-05-06 18:15:00,
2013-05-06 14:30:00,74.1,42.4,29.98,ENE,68,2.4,5.3,32,0.00,,SKC,0.00,VWS V14.01,2013-05-06 18:30:00,
2013-05-06 14:45:00,75.0,43.2,29.98,ESE,112,0.0,3.3,32,0.00,,SKC,0.00,VWS V14.01,2013-05-06 18:45:00,
2013-05-06 15:00:00,76.2,42.5,29.98,NE,45,2.4,3.5,30,0.00,,SKC,0.00,VWS V14.01,2013-05-06 19:00:00,
2013-05-06 15:15:00,75.5,43.6,29.97,SSW,202,0.0,2.9,32,0.00,,SKC,0.00,VWS V14.01,2013-05-06 19:15:00,
2013-05-06 15:30:00,76.4,42.7,29.97,SSE,158,3.1,4.2,30,0.00,,SKC,0.00,VWS V14.01,2013-05-06 19:30:00,
2013-05-06 15:45:00,76.6,41.1,29.96,East,90,4.0,9.1,28,0.00,,SKC,0.00,VWS V14.01,2013-05-06 19:45:00,
2013-05-06 16:00:00,76.1,41.6,29.96,SE,135,0.0,6.0,29,0.00,,SKC,0.00,VWS V14.01,2013-05-06 20:00:00,
2013-05-06 16:15:00,76.6,42.0,29.96,SSE,158,0.0,4.4,29,0.00,,SKC,0.00,VWS V14.01,2013-05-06 20:15:00,
2013-05-06 16:30:00,76.1,41.6,29.95,SSE,158,0.0,9.6,29,0.00,,SKC,0.00,VWS V14.01,2013-05-06 20:30:00,
2013-05-06 16:45:00,77.5,43.7,29.95,SSE,158,1.5,6.4,30,0.00,,SKC,0.00,VWS V14.01,2013-05-06 20:45:00,
2013-05-06 17:00:00,77.3,42.6,29.95,NE,45,1.1,4.2,29,0.00,,SKC,0.00,VWS V14.01,2013-05-06 21:00:00,
2013-05-06 17:15:00,76.6,42.0,29.94,SE,135,1.7,2.6,29,0.00,,SKC,0.00,VWS V14.01,2013-05-06 21:15:00,
2013-05-06 17:30:00,76.4,40.9,29.94,South,180,2.2,7.6,28,0.00,,SKC,0.00,VWS V14.01,2013-05-06 21:30:00,
2013-05-06 17:45:00,75.9,40.5,29.94,SSW,202,0.0,4.6,28,0.00,,SKC,0.00,VWS V14.01,2013-05-06 21:45:00,
2013-05-06 18:00:00,75.7,40.3,29.94,SSE,158,2.4,2.4,28,0.00,,SKC,0.00,VWS V14.01,2013-05-06 22:00:00,
2013-05-06 18:15:00,75.5,40.2,29.95,SSE,158,0.6,4.0,28,0.00,,SKC,0.00,VWS V14.01,2013-05-06 22:15:00,
2013-05-06 18:30:00,75.9,40.5,29.95,SSE,158,0.0,2.4,28,0.00,,SKC,0.00,VWS V14.01,2013-05-06 22:30:00,
2013-05-06 18:45:00,75.5,40.2,29.94,ESE,112,0.0,1.3,28,0.00,,SKC,0.00,VWS V14.01,2013-05-06 22:45:00,
2013-05-06 19:00:00,75.5,40.2,29.95,NE,45,0.0,1.5,28,0.00,,SKC,0.00,VWS V14.01,2013-05-06 23:00:00,
2013-05-06 19:15:00,75.2,39.9,29.95,SSE,158,0.4,0.4,28,0.00,,SKC,0.00,VWS V14.01,2013-05-06 23:15:00,
2013-05-06 19:30:00,74.6,40.3,29.95,SSE,158,0.0,0.4,29,0.00,,SKC,0.00,VWS V14.01,2013-05-06 23:30:00,
2013-05-06 19:45:00,73.5,40.2,29.96,East,90,0.8,0.8,30,0.00,,SKC,0.00,VWS V14.01,2013-05-06 23:45:00,
2013-05-06 20:00:00,71.7,39.5,29.96,SSE,158,0.0,0.8,31,0.00,,SKC,0.00,VWS V14.01,2013-05-07 00:00:00,
2013-05-06 20:15:00,70.3,39.1,29.96,ENE,68,0.0,0.0,32,0.00,,SKC,0.00,VWS V14.01,2013-05-07 00:15:00,
2013-05-06 20:30:00,68.9,39.4,29.96,ENE,68,0.0,1.7,34,0.00,,SKC,0.00,VWS V14.01,2013-05-07 00:30:00,
2013-05-06 20:45:00,67.6,39.0,29.96,ENE,68,0.0,0.0,35,0.00,,SKC,0.00,VWS V14.01,2013-05-07 00:45:00,
2013-05-06 21:00:00,66.3,39.3,29.96,ENE,68,0.0,0.0,37,0.00,,SKC,0.00,VWS V14.01,2013-05-07 01:00:00,
2013-05-06 21:15:00,65.3,39.1,29.96,ENE,68,0.0,0.0,38,0.00,,SKC,0.00,VWS V14.01,2013-05-07 01:15:00,
2013-05-06 21:30:00,64.5,40.3,29.97,ENE,68,0.0,0.0,41,0.00,,SKC,0.00,VWS V14.01,2013-05-07 01:30:00,
2013-05-06 21:45:00,63.6,40.1,29.97,ENE,68,0.0,0.0,42,0.00,,SKC,0.00,VWS V14.01,2013-05-07 01:45:00,
2013-05-06 22:00:00,62.9,40.7,29.98,ENE,68,0.0,0.0,44,0.00,,SKC,0.00,VWS V14.01,2013-05-07 02:00:00,
2013-05-06 22:15:00,62.2,41.2,29.98,ENE,68,0.0,0.0,46,0.00,,SKC,0.00,VWS V14.01,2013-05-07 02:15:00,
2013-05-06 22:30:00,61.5,40.5,29.98,ENE,68,0.0,0.0,46,0.00,,SKC,0.00,VWS V14.01,2013-05-07 02:30:00,
2013-05-06 22:45:00,60.2,39.9,29.98,ENE,68,0.0,0.0,47,0.00,,SKC,0.00,VWS V14.01,2013-05-07 02:45:00,
2013-05-06 23:00:00,59.3,39.6,29.99,ENE,68,0.0,0.0,48,0.00,,SKC,0.00,VWS V14.01,2013-05-07 03:00:00,
2013-05-06 23:15:00,58.4,38.8,29.99,ENE,68,0.0,0.0,48,0.00,,SKC,0.00,VWS V14.01,2013-05-07 03:15:00,
2013-05-06 23:30:00,57.9,38.9,29.99,ENE,68,0.0,0.0,49,0.00,,SKC,0.00,VWS V14.01,2013-05-07 03:30:00,
2013-05-06 23:45:00,57.3,39.3,29.99,ENE,68,0.0,0.0,51,0.00,,SKC,0.00,VWS V14.01,2013-05-07 03:45:00,